Winner, SD

12:04 AM CDT on July 26, 2017 (GMT -0500)
Winner

Weather History for KICR - January, 2013

Change the Weather History Date:

Friday, January 4, 2013

  Actual Average Record
Temperature  
Mean Temperature 28 °F 24 °F  
Max Temperature 40 °F 35 °F 61 °F (2012)
Min Temperature 15 °F 14 °F -8 °F (2015)
Degree Days  
Heating Degree Days 37 41  
Month to date heating degree days 159 164  
Since 1 July heating degree days 2573 2870  
Cooling Degree Days 0 0  
Month to date cooling degree days 0 0  
Year to date cooling degree days 0 0  
Moisture  
Dew Point 13 °F    
Average Humidity 56    
Maximum Humidity 74    
Minimum Humidity 37    
Precipitation  
Precipitation 0.00 in 0.01 in 0.00 in (2017)
Month to date precipitation T 0.03  
Year to date precipitation T 0.03  
Sea Level Pressure  
Sea Level Pressure 30.15 in    
Wind  
Wind Speed 6 mph (SSW)    
Max Wind Speed 13 mph    
Max Gust Speed 14 mph    
Visibility 10 miles    
Events      
T = Trace of Precipitation, MM = Missing Value Source: NWS Daily Summary

Daily Weather History Graph

Daily Weather History Graph

Search for Another Location

Airport or City:

Trip Planner

Search our weather history database for the weather conditions in past years. The results will help you decide how hot, cold, wet, or windy it might be!

Date:

Astronomy

Jan. 04, 2013 Rise Set
Actual Time 8:12 AM CST 5:17 PM CST
Civil Twilight 7:39 AM CST 5:49 PM CST
Nautical Twilight 7:03 AM CST 6:25 PM CST
Astronomical Twilight 6:29 AM CST 7:00 PM CST
Moon 12:06 AM CST (1/4) 11:42 AM CST (1/4)
Length of Visible Light 10h 09m
Length of Day
9h 05m
Waning Gibbous, 55% of the Moon is Illuminated
Jan 4
Waning Gibbous
Jan 4
Last Quarter
Jan 11
New
Jan 18
First Quarter
Jan 26
Full

Hourly Weather History & Observations

Time (CST) Temp. Windchill Dew Point Humidity Pressure Visibility Wind Dir Wind Speed Gust Speed Precip Events Conditions
12:53 AM 23.0 °F 12.4 °F 9.0 °F 55% 30.20 in 10.0 mi SW 10.4 mph - N/A   Clear
1:53 AM 23.0 °F 13.1 °F 9.0 °F 55% 30.18 in 10.0 mi SW 9.2 mph - N/A   Clear
2:53 AM 21.9 °F 12.5 °F 8.1 °F 55% 30.19 in 10.0 mi SW 8.1 mph - N/A   Clear
3:53 AM 23.0 °F 12.4 °F 8.1 °F 53% 30.17 in 10.0 mi SW 10.4 mph - N/A   Clear
4:53 AM 21.9 °F - 7.0 °F 53% 30.18 in 10.0 mi Calm Calm - N/A   Clear
5:53 AM 21.9 °F - 6.1 °F 51% 30.19 in 10.0 mi Calm Calm - N/A   Clear
7:53 AM 18.0 °F 11.1 °F 6.1 °F 60% 30.20 in 10.0 mi SSW 4.6 mph - N/A   Clear
8:53 AM 17.1 °F 7.6 °F 6.1 °F 62% 30.21 in 10.0 mi SW 6.9 mph - N/A   Clear
9:53 AM 25.0 °F 17.1 °F 7.0 °F 46% 30.22 in 10.0 mi SW 6.9 mph - N/A   Clear
10:53 AM 30.9 °F 26.2 °F 10.9 °F 43% 30.22 in 10.0 mi SSW 4.6 mph - N/A   Clear
11:53 AM 34.0 °F 31.0 °F 14.0 °F 44% 30.20 in 10.0 mi SW 3.5 mph - N/A   Clear
12:53 PM 37.0 °F - 18.0 °F 46% 30.16 in 10.0 mi Calm Calm - N/A   Clear
1:53 PM 39.0 °F - 16.0 °F 39% 30.13 in 10.0 mi Calm Calm - N/A   Clear
2:53 PM 37.9 °F - 16.0 °F 41% 30.12 in 10.0 mi Calm Calm - N/A   Clear
3:53 PM 36.0 °F 33.3 °F 19.9 °F 52% 30.12 in 10.0 mi ENE 3.5 mph - N/A   Clear
4:53 PM 34.0 °F 29.8 °F 18.0 °F 52% 30.13 in 10.0 mi ENE 4.6 mph - N/A   Clear
5:53 PM 32.0 °F 26.4 °F 19.9 °F 61% 30.12 in 10.0 mi SE 5.8 mph - N/A   Clear
6:53 PM 28.0 °F 20.8 °F 19.0 °F 69% 30.12 in 10.0 mi SSE 6.9 mph - N/A   Clear
7:53 PM 25.0 °F 17.1 °F 17.1 °F 72% 30.11 in 10.0 mi South 6.9 mph - N/A   Clear
8:53 PM 27.0 °F 20.5 °F 16.0 °F 63% 30.09 in 10.0 mi SSW 5.8 mph - N/A   Clear
9:53 PM 25.0 °F 15.5 °F 16.0 °F 69% 30.09 in 10.0 mi WSW 9.2 mph - N/A   Clear
10:53 PM 21.9 °F 11.0 °F 14.0 °F 72% 30.09 in 10.0 mi WSW 10.4 mph - N/A   Clear
11:53 PM 19.9 °F 10.1 °F 14.0 °F 78% 30.09 in 10.0 mi WSW 8.1 mph - N/A   Clear